#datetime,building,power
2023-08-24T00:00:00,axn,30.35
2023-08-24T00:01:00,axn,30.20
2023-08-24T00:02:00,axn,30.23
2023-08-24T00:03:00,axn,30.40
2023-08-24T00:04:00,axn,30.91
2023-08-24T00:05:00,axn,30.99
2023-08-24T00:06:00,axn,31.37
2023-08-24T00:07:00,axn,31.27
2023-08-24T00:08:00,axn,31.31
2023-08-24T00:09:00,axn,30.83
2023-08-24T00:10:00,axn,30.86
2023-08-24T00:11:00,axn,30.52
2023-08-24T00:12:00,axn,30.41
2023-08-24T00:13:00,axn,30.34
2023-08-24T00:14:00,axn,30.85
2023-08-24T00:15:00,axn,30.82
2023-08-24T00:16:00,axn,30.79
2023-08-24T00:17:00,axn,30.94
2023-08-24T00:18:00,axn,30.73
2023-08-24T00:19:00,axn,30.09
2023-08-24T00:20:00,axn,30.09
2023-08-24T00:21:00,axn,30.18
2023-08-24T00:22:00,axn,30.20
2023-08-24T00:23:00,axn,30.57
2023-08-24T00:24:00,axn,31.16
2023-08-24T00:25:00,axn,31.30
2023-08-24T00:26:00,axn,31.15
2023-08-24T00:27:00,axn,31.19
2023-08-24T00:28:00,axn,31.26
2023-08-24T00:29:00,axn,30.57
2023-08-24T00:30:00,axn,30.49
2023-08-24T00:31:00,axn,30.71
2023-08-24T00:32:00,axn,30.71
2023-08-24T00:33:00,axn,30.68
2023-08-24T00:34:00,axn,31.28
2023-08-24T00:35:00,axn,31.66
2023-08-24T00:36:00,axn,31.30
2023-08-24T00:37:00,axn,31.31
2023-08-24T00:38:00,axn,31.66
2023-08-24T00:39:00,axn,30.70
2023-08-24T00:40:00,axn,30.63
2023-08-24T00:41:00,axn,30.58
2023-08-24T00:42:00,axn,28.58
2023-08-24T00:43:00,axn,28.68
2023-08-24T00:44:00,axn,28.63
2023-08-24T00:45:00,axn,29.50
2023-08-24T00:46:00,axn,29.50
2023-08-24T00:47:00,axn,29.51
2023-08-24T00:48:00,axn,29.53
2023-08-24T00:49:00,axn,28.80
2023-08-24T00:50:00,axn,28.70
2023-08-24T00:51:00,axn,28.72
2023-08-24T00:52:00,axn,28.74
2023-08-24T00:53:00,axn,28.80
2023-08-24T00:54:00,axn,28.83
2023-08-24T00:55:00,axn,29.43
2023-08-24T00:56:00,axn,29.39
2023-08-24T00:57:00,axn,32.23
2023-08-24T00:58:00,axn,29.19
2023-08-24T00:59:00,axn,28.56
2023-08-24T01:00:00,axn,28.57
2023-08-24T01:01:00,axn,28.78
2023-08-24T01:02:00,axn,28.82
2023-08-24T01:03:00,axn,29.32
2023-08-24T01:04:00,axn,29.23
2023-08-24T01:05:00,axn,29.95
2023-08-24T01:06:00,axn,29.48
2023-08-24T01:07:00,axn,29.63
2023-08-24T01:08:00,axn,29.67
2023-08-24T01:09:00,axn,28.94
2023-08-24T01:10:00,axn,28.74
2023-08-24T01:11:00,axn,28.68
2023-08-24T01:12:00,axn,28.61
2023-08-24T01:13:00,axn,28.53
2023-08-24T01:14:00,axn,28.56
2023-08-24T01:15:00,axn,28.97
2023-08-24T01:16:00,axn,29.10
2023-08-24T01:17:00,axn,29.16
2023-08-24T01:18:00,axn,29.20
2023-08-24T01:19:00,axn,28.72
2023-08-24T01:20:00,axn,28.54
2023-08-24T01:21:00,axn,28.68
2023-08-24T01:22:00,axn,28.60
2023-08-24T01:23:00,axn,28.55
2023-08-24T01:24:00,axn,28.73
2023-08-24T01:25:00,axn,29.28
2023-08-24T01:26:00,axn,29.24
2023-08-24T01:27:00,axn,29.52
2023-08-24T01:28:00,axn,34.12
2023-08-24T01:29:00,axn,33.38
2023-08-24T01:30:00,axn,33.42
2023-08-24T01:31:00,axn,28.85
2023-08-24T01:32:00,axn,29.12
2023-08-24T01:33:00,axn,29.04
2023-08-24T01:34:00,axn,28.99
2023-08-24T01:35:00,axn,29.48
2023-08-24T01:36:00,axn,29.58
2023-08-24T01:37:00,axn,29.35
2023-08-24T01:38:00,axn,29.68
2023-08-24T01:39:00,axn,28.85
2023-08-24T01:40:00,axn,28.76
2023-08-24T01:41:00,axn,28.89
2023-08-24T01:42:00,axn,28.95
2023-08-24T01:43:00,axn,28.84
2023-08-24T01:44:00,axn,28.92
2023-08-24T01:45:00,axn,29.54
2023-08-24T01:46:00,axn,29.48
2023-08-24T01:47:00,axn,29.41
2023-08-24T01:48:00,axn,29.36
2023-08-24T01:49:00,axn,29.12
2023-08-24T01:50:00,axn,28.81
2023-08-24T01:51:00,axn,28.92
2023-08-24T01:52:00,axn,28.27
2023-08-24T01:53:00,axn,28.60
2023-08-24T01:54:00,axn,28.30
2023-08-24T01:55:00,axn,28.95
2023-08-24T01:56:00,axn,28.92
2023-08-24T01:57:00,axn,29.17
2023-08-24T01:58:00,axn,29.09
2023-08-24T01:59:00,axn,29.07
2023-08-24T02:00:00,axn,28.75
2023-08-24T02:01:00,axn,28.99
2023-08-24T02:02:00,axn,29.42
2023-08-24T02:03:00,axn,28.60
2023-08-24T02:04:00,axn,29.12
2023-08-24T02:05:00,axn,28.75
2023-08-24T02:06:00,axn,28.77
2023-08-24T02:07:00,axn,28.80
2023-08-24T02:08:00,axn,28.56
2023-08-24T02:09:00,axn,28.59
2023-08-24T02:10:00,axn,28.99
2023-08-24T02:11:00,axn,28.09
2023-08-24T02:12:00,axn,28.03
2023-08-24T02:13:00,axn,28.03
2023-08-24T02:14:00,axn,27.97
2023-08-24T02:15:00,axn,28.02
2023-08-24T02:16:00,axn,28.53
2023-08-24T02:17:00,axn,31.35
2023-08-24T02:18:00,axn,31.30
2023-08-24T02:19:00,axn,31.30
2023-08-24T02:20:00,axn,28.88
2023-08-24T02:21:00,axn,28.01
2023-08-24T02:22:00,axn,28.02
2023-08-24T02:23:00,axn,28.11
2023-08-24T02:24:00,axn,28.00
2023-08-24T02:25:00,axn,28.38
2023-08-24T02:26:00,axn,28.52
2023-08-24T02:27:00,axn,28.59
2023-08-24T02:28:00,axn,28.50
2023-08-24T02:29:00,axn,28.55
2023-08-24T02:30:00,axn,28.46
2023-08-24T02:31:00,axn,27.77
2023-08-24T02:32:00,axn,27.84
2023-08-24T02:33:00,axn,27.89
2023-08-24T02:34:00,axn,28.51
2023-08-24T02:35:00,axn,28.23
2023-08-24T02:36:00,axn,28.82
2023-08-24T02:37:00,axn,28.88
2023-08-24T02:38:00,axn,28.75
2023-08-24T02:39:00,axn,28.75
2023-08-24T02:40:00,axn,28.85
2023-08-24T02:41:00,axn,28.24
2023-08-24T02:42:00,axn,28.14
2023-08-24T02:43:00,axn,28.09
2023-08-24T02:44:00,axn,28.17
2023-08-24T02:45:00,axn,28.28
2023-08-24T02:46:00,axn,28.61
2023-08-24T02:47:00,axn,29.46
2023-08-24T02:48:00,axn,29.09
2023-08-24T02:49:00,axn,28.86
2023-08-24T02:50:00,axn,28.93
2023-08-24T02:51:00,axn,28.36
2023-08-24T02:52:00,axn,28.74
2023-08-24T02:53:00,axn,28.35
2023-08-24T02:54:00,axn,28.51
2023-08-24T02:55:00,axn,28.25
2023-08-24T02:56:00,axn,28.65
2023-08-24T02:57:00,axn,29.38
2023-08-24T02:58:00,axn,28.94
2023-08-24T02:59:00,axn,28.97
2023-08-24T03:00:00,axn,29.09
2023-08-24T03:01:00,axn,28.48
2023-08-24T03:02:00,axn,28.43
2023-08-24T03:03:00,axn,28.41
2023-08-24T03:04:00,axn,28.35
2023-08-24T03:05:00,axn,28.39
2023-08-24T03:06:00,axn,28.35
2023-08-24T03:07:00,axn,29.04
2023-08-24T03:08:00,axn,29.01
2023-08-24T03:09:00,axn,29.14
2023-08-24T03:10:00,axn,29.10
2023-08-24T03:11:00,axn,28.97
2023-08-24T03:12:00,axn,28.59
2023-08-24T03:13:00,axn,28.46
2023-08-24T03:14:00,axn,28.29
2023-08-24T03:15:00,axn,28.08
2023-08-24T03:16:00,axn,28.27
2023-08-24T03:17:00,axn,28.72
2023-08-24T03:18:00,axn,28.83
2023-08-24T03:19:00,axn,28.74
2023-08-24T03:20:00,axn,28.66
2023-08-24T03:21:00,axn,28.61
2023-08-24T03:22:00,axn,28.41
2023-08-24T03:23:00,axn,27.81
2023-08-24T03:24:00,axn,28.13
2023-08-24T03:25:00,axn,27.75
2023-08-24T03:26:00,axn,28.00
2023-08-24T03:27:00,axn,27.91
2023-08-24T03:28:00,axn,28.58
2023-08-24T03:29:00,axn,28.63
2023-08-24T03:30:00,axn,28.70
2023-08-24T03:31:00,axn,28.71
2023-08-24T03:32:00,axn,28.10
2023-08-24T03:33:00,axn,28.15
2023-08-24T03:34:00,axn,28.11
2023-08-24T03:35:00,axn,28.18
2023-08-24T03:36:00,axn,28.09
2023-08-24T03:37:00,axn,27.99
2023-08-24T03:38:00,axn,28.50
2023-08-24T03:39:00,axn,28.41
2023-08-24T03:40:00,axn,28.51
2023-08-24T03:41:00,axn,28.60
2023-08-24T03:42:00,axn,28.54
2023-08-24T03:43:00,axn,28.04
2023-08-24T03:44:00,axn,27.86
2023-08-24T03:45:00,axn,33.94
2023-08-24T03:46:00,axn,33.99
2023-08-24T03:47:00,axn,34.04
2023-08-24T03:48:00,axn,28.79
2023-08-24T03:49:00,axn,31.36
2023-08-24T03:50:00,axn,28.50
2023-08-24T03:51:00,axn,28.52
2023-08-24T03:52:00,axn,28.50
2023-08-24T03:53:00,axn,28.01
2023-08-24T03:54:00,axn,27.95
2023-08-24T03:55:00,axn,27.99
2023-08-24T03:56:00,axn,27.96
2023-08-24T03:57:00,axn,28.38
2023-08-24T03:58:00,axn,28.04
2023-08-24T03:59:00,axn,28.45
2023-08-24T04:00:00,axn,28.33
2023-08-24T04:01:00,axn,28.30
2023-08-24T04:02:00,axn,28.14
2023-08-24T04:03:00,axn,27.96
2023-08-24T04:04:00,axn,27.59
2023-08-24T04:05:00,axn,27.72
2023-08-24T04:06:00,axn,28.09
2023-08-24T04:07:00,axn,27.78
2023-08-24T04:08:00,axn,28.12
2023-08-24T04:09:00,axn,28.28
2023-08-24T04:10:00,axn,29.13
2023-08-24T04:11:00,axn,29.18
2023-08-24T04:12:00,axn,28.91
2023-08-24T04:13:00,axn,28.81
2023-08-24T04:14:00,axn,28.25
2023-08-24T04:15:00,axn,28.29
2023-08-24T04:16:00,axn,45.58
2023-08-24T04:17:00,axn,28.28
2023-08-24T04:18:00,axn,28.23
2023-08-24T04:19:00,axn,28.76
2023-08-24T04:20:00,axn,28.99
2023-08-24T04:21:00,axn,28.77
2023-08-24T04:22:00,axn,28.62
2023-08-24T04:23:00,axn,28.76
2023-08-24T04:24:00,axn,27.85
2023-08-24T04:25:00,axn,28.06
2023-08-24T04:26:00,axn,28.55
2023-08-24T04:27:00,axn,28.24
2023-08-24T04:28:00,axn,28.16
2023-08-24T04:29:00,axn,28.06
2023-08-24T04:30:00,axn,28.36
2023-08-24T04:31:00,axn,28.51
2023-08-24T04:32:00,axn,28.34
2023-08-24T04:33:00,axn,28.27
2023-08-24T04:34:00,axn,28.59
2023-08-24T04:35:00,axn,27.78
2023-08-24T04:36:00,axn,27.82
2023-08-24T04:37:00,axn,27.87
2023-08-24T04:38:00,axn,28.04
2023-08-24T04:39:00,axn,27.95
2023-08-24T04:40:00,axn,27.74
2023-08-24T04:41:00,axn,28.43
2023-08-24T04:42:00,axn,28.42
2023-08-24T04:43:00,axn,28.48
2023-08-24T04:44:00,axn,28.64
2023-08-24T04:45:00,axn,28.09
2023-08-24T04:46:00,axn,28.09
2023-08-24T04:47:00,axn,27.97
2023-08-24T04:48:00,axn,27.83
2023-08-24T04:49:00,axn,27.89
2023-08-24T04:50:00,axn,28.00
2023-08-24T04:51:00,axn,28.47
2023-08-24T04:52:00,axn,28.46
2023-08-24T04:53:00,axn,28.45
2023-08-24T04:54:00,axn,28.67
2023-08-24T04:55:00,axn,28.85
2023-08-24T04:56:00,axn,28.30
2023-08-24T04:57:00,axn,28.00
2023-08-24T04:58:00,axn,27.97
2023-08-24T04:59:00,axn,28.06
2023-08-24T05:00:00,axn,27.93
2023-08-24T05:01:00,axn,27.49
2023-08-24T05:02:00,axn,28.09
2023-08-24T05:03:00,axn,27.95
2023-08-24T05:04:00,axn,27.96
2023-08-24T05:05:00,axn,27.81
2023-08-24T05:06:00,axn,27.15
2023-08-24T05:07:00,axn,27.37
2023-08-24T05:08:00,axn,27.19
2023-08-24T05:09:00,axn,27.44
2023-08-24T05:10:00,axn,27.28
2023-08-24T05:11:00,axn,27.43
2023-08-24T05:12:00,axn,28.22
2023-08-24T05:13:00,axn,28.29
2023-08-24T05:14:00,axn,28.36
2023-08-24T05:15:00,axn,27.91
2023-08-24T05:16:00,axn,27.30
2023-08-24T05:17:00,axn,27.30
2023-08-24T05:18:00,axn,27.22
2023-08-24T05:19:00,axn,27.36
2023-08-24T05:20:00,axn,27.30
2023-08-24T05:21:00,axn,27.74
2023-08-24T05:22:00,axn,27.73
2023-08-24T05:23:00,axn,27.73
2023-08-24T05:24:00,axn,27.73
2023-08-24T05:25:00,axn,27.73
2023-08-24T05:26:00,axn,28.09
2023-08-24T05:27:00,axn,27.22
2023-08-24T05:28:00,axn,27.14
2023-08-24T05:29:00,axn,27.16
2023-08-24T05:30:00,axn,27.31
2023-08-24T05:31:00,axn,29.83
2023-08-24T05:32:00,axn,30.48
2023-08-24T05:33:00,axn,30.72
2023-08-24T05:34:00,axn,30.13
2023-08-24T05:35:00,axn,30.16
2023-08-24T05:36:00,axn,30.09
2023-08-24T05:37:00,axn,29.79
2023-08-24T05:38:00,axn,29.45
2023-08-24T05:39:00,axn,29.40
2023-08-24T05:40:00,axn,29.39
2023-08-24T05:41:00,axn,29.70
2023-08-24T05:42:00,axn,29.21
2023-08-24T05:43:00,axn,29.80
2023-08-24T05:44:00,axn,29.81
2023-08-24T05:45:00,axn,29.61
2023-08-24T05:46:00,axn,29.62
2023-08-24T05:47:00,axn,29.54
2023-08-24T05:48:00,axn,29.26
2023-08-24T05:49:00,axn,29.31
2023-08-24T05:50:00,axn,29.33
2023-08-24T05:51:00,axn,31.79
2023-08-24T05:52:00,axn,31.76
2023-08-24T05:53:00,axn,31.59
2023-08-24T05:54:00,axn,29.54
2023-08-24T05:55:00,axn,29.50
2023-08-24T05:56:00,axn,29.29
2023-08-24T05:57:00,axn,29.24
2023-08-24T05:58:00,axn,28.65
2023-08-24T05:59:00,axn,28.86
2023-08-24T06:00:00,axn,29.01
2023-08-24T06:01:00,axn,28.71
2023-08-24T06:02:00,axn,28.65
2023-08-24T06:03:00,axn,28.95
2023-08-24T06:04:00,axn,30.21
2023-08-24T06:05:00,axn,29.62
2023-08-24T06:06:00,axn,29.41
2023-08-24T06:07:00,axn,29.35
2023-08-24T06:08:00,axn,28.61
2023-08-24T06:09:00,axn,28.89
2023-08-24T06:10:00,axn,43.09
2023-08-24T06:11:00,axn,42.80
2023-08-24T06:12:00,axn,42.66
2023-08-24T06:13:00,axn,42.48
2023-08-24T06:14:00,axn,43.08
2023-08-24T06:15:00,axn,42.49
2023-08-24T06:16:00,axn,28.62
2023-08-24T06:17:00,axn,28.59
2023-08-24T06:18:00,axn,29.07
2023-08-24T06:19:00,axn,28.21
2023-08-24T06:20:00,axn,28.00
2023-08-24T06:21:00,axn,27.92
2023-08-24T06:22:00,axn,27.86
2023-08-24T06:23:00,axn,28.02
2023-08-24T06:24:00,axn,27.74
2023-08-24T06:25:00,axn,28.40
2023-08-24T06:26:00,axn,28.47
2023-08-24T06:27:00,axn,28.30
2023-08-24T06:28:00,axn,28.47
2023-08-24T06:29:00,axn,28.03
2023-08-24T06:30:00,axn,27.66
2023-08-24T06:31:00,axn,27.67
2023-08-24T06:32:00,axn,27.72
2023-08-24T06:33:00,axn,27.54
2023-08-24T06:34:00,axn,27.44
2023-08-24T06:35:00,axn,30.65
2023-08-24T06:36:00,axn,30.71
2023-08-24T06:37:00,axn,27.89
2023-08-24T06:38:00,axn,27.77
2023-08-24T06:39:00,axn,27.69
2023-08-24T06:40:00,axn,27.36
2023-08-24T06:41:00,axn,27.43
2023-08-24T06:42:00,axn,27.78
2023-08-24T06:43:00,axn,27.53
2023-08-24T06:44:00,axn,27.46
2023-08-24T06:45:00,axn,27.45
2023-08-24T06:46:00,axn,27.87
2023-08-24T06:47:00,axn,27.83
2023-08-24T06:48:00,axn,28.44
2023-08-24T06:49:00,axn,28.08
2023-08-24T06:50:00,axn,27.59
2023-08-24T06:51:00,axn,27.47
2023-08-24T06:52:00,axn,27.47
2023-08-24T06:53:00,axn,27.46
2023-08-24T06:54:00,axn,27.36
2023-08-24T06:55:00,axn,27.42
2023-08-24T06:56:00,axn,28.03
2023-08-24T06:57:00,axn,28.26
2023-08-24T06:58:00,axn,28.16
2023-08-24T06:59:00,axn,28.17
2023-08-24T07:00:00,axn,28.41
2023-08-24T07:01:00,axn,30.62
2023-08-24T07:02:00,axn,33.29
2023-08-24T07:03:00,axn,34.32
2023-08-24T07:04:00,axn,34.89
2023-08-24T07:05:00,axn,34.64
2023-08-24T07:06:00,axn,34.92
2023-08-24T07:07:00,axn,35.19
2023-08-24T07:08:00,axn,35.11
2023-08-24T07:09:00,axn,34.95
2023-08-24T07:10:00,axn,35.27
2023-08-24T07:11:00,axn,34.87
2023-08-24T07:12:00,axn,34.91
2023-08-24T07:13:00,axn,34.36
2023-08-24T07:14:00,axn,34.27
2023-08-24T07:15:00,axn,33.84
2023-08-24T07:16:00,axn,33.58
2023-08-24T07:17:00,axn,34.07
2023-08-24T07:18:00,axn,33.99
2023-08-24T07:19:00,axn,34.20
2023-08-24T07:20:00,axn,34.39
2023-08-24T07:21:00,axn,34.58
2023-08-24T07:22:00,axn,34.64
2023-08-24T07:23:00,axn,34.68
2023-08-24T07:24:00,axn,34.54
2023-08-24T07:25:00,axn,34.52
2023-08-24T07:26:00,axn,34.83
2023-08-24T07:27:00,axn,34.10
2023-08-24T07:28:00,axn,33.94
2023-08-24T07:29:00,axn,34.45
2023-08-24T07:30:00,axn,34.41
2023-08-24T07:31:00,axn,34.13
2023-08-24T07:32:00,axn,34.32
2023-08-24T07:33:00,axn,34.41
2023-08-24T07:34:00,axn,34.94
2023-08-24T07:35:00,axn,34.15
2023-08-24T07:36:00,axn,34.23
2023-08-24T07:37:00,axn,34.24
2023-08-24T07:38:00,axn,34.32
2023-08-24T07:39:00,axn,33.74
2023-08-24T07:40:00,axn,33.70
2023-08-24T07:41:00,axn,33.99
2023-08-24T07:42:00,axn,34.35
2023-08-24T07:43:00,axn,34.10
2023-08-24T07:44:00,axn,44.65
2023-08-24T07:45:00,axn,44.68
2023-08-24T07:46:00,axn,44.56
2023-08-24T07:47:00,axn,44.05
2023-08-24T07:48:00,axn,43.91
2023-08-24T07:49:00,axn,34.05
2023-08-24T07:50:00,axn,33.51
2023-08-24T07:51:00,axn,33.23
2023-08-24T07:52:00,axn,33.40
2023-08-24T07:53:00,axn,33.76
2023-08-24T07:54:00,axn,33.98
2023-08-24T07:55:00,axn,33.69
2023-08-24T07:56:00,axn,34.51
2023-08-24T07:57:00,axn,34.43
2023-08-24T07:58:00,axn,34.42
2023-08-24T07:59:00,axn,34.41
2023-08-24T08:00:00,axn,34.75
2023-08-24T08:01:00,axn,33.94
2023-08-24T08:02:00,axn,37.45
2023-08-24T08:03:00,axn,37.77
2023-08-24T08:04:00,axn,37.55
2023-08-24T08:05:00,axn,38.55
2023-08-24T08:06:00,axn,38.07
2023-08-24T08:07:00,axn,38.39
2023-08-24T08:08:00,axn,38.18
2023-08-24T08:09:00,axn,38.41
2023-08-24T08:10:00,axn,38.92
2023-08-24T08:11:00,axn,38.46
2023-08-24T08:12:00,axn,37.34
2023-08-24T08:13:00,axn,37.33
2023-08-24T08:14:00,axn,37.34
2023-08-24T08:15:00,axn,37.68
2023-08-24T08:16:00,axn,37.35
2023-08-24T08:17:00,axn,37.78
2023-08-24T08:18:00,axn,38.43
2023-08-24T08:19:00,axn,37.73
2023-08-24T08:20:00,axn,37.68
2023-08-24T08:21:00,axn,38.81
2023-08-24T08:22:00,axn,38.36
2023-08-24T08:23:00,axn,38.16
2023-08-24T08:24:00,axn,38.02
2023-08-24T08:25:00,axn,37.58
2023-08-24T08:26:00,axn,37.45
2023-08-24T08:27:00,axn,37.46
2023-08-24T08:28:00,axn,37.86
2023-08-24T08:29:00,axn,37.51
2023-08-24T08:30:00,axn,37.82
2023-08-24T08:31:00,axn,37.79
2023-08-24T08:32:00,axn,37.89
2023-08-24T08:33:00,axn,38.56
2023-08-24T08:34:00,axn,39.26
2023-08-24T08:35:00,axn,38.86
2023-08-24T08:36:00,axn,38.88
2023-08-24T08:37:00,axn,38.31
2023-08-24T08:38:00,axn,36.66
2023-08-24T08:39:00,axn,53.15
2023-08-24T08:40:00,axn,36.46
2023-08-24T08:41:00,axn,36.54
2023-08-24T08:42:00,axn,36.84
2023-08-24T08:43:00,axn,36.73
2023-08-24T08:44:00,axn,36.43
2023-08-24T08:45:00,axn,36.50
2023-08-24T08:46:00,axn,37.26
2023-08-24T08:47:00,axn,37.07
2023-08-24T08:48:00,axn,36.95
2023-08-24T08:49:00,axn,36.85
2023-08-24T08:50:00,axn,36.38
2023-08-24T08:51:00,axn,36.01
2023-08-24T08:52:00,axn,35.84
2023-08-24T08:53:00,axn,35.95
2023-08-24T08:54:00,axn,36.53
2023-08-24T08:55:00,axn,36.40
2023-08-24T08:56:00,axn,36.72
2023-08-24T08:57:00,axn,36.69
2023-08-24T08:58:00,axn,37.49
2023-08-24T08:59:00,axn,37.34
2023-08-24T09:00:00,axn,37.30
2023-08-24T09:01:00,axn,37.38
2023-08-24T09:02:00,axn,36.45
2023-08-24T09:03:00,axn,36.47
2023-08-24T09:04:00,axn,36.65
2023-08-24T09:05:00,axn,36.70
2023-08-24T09:06:00,axn,37.28
2023-08-24T09:07:00,axn,36.81
2023-08-24T09:08:00,axn,36.70
2023-08-24T09:09:00,axn,37.37
2023-08-24T09:10:00,axn,37.52
2023-08-24T09:11:00,axn,37.38
2023-08-24T09:12:00,axn,37.16
2023-08-24T09:13:00,axn,37.15
2023-08-24T09:14:00,axn,36.86
2023-08-24T09:15:00,axn,36.66
2023-08-24T09:16:00,axn,36.84
2023-08-24T09:17:00,axn,37.39
2023-08-24T09:18:00,axn,37.76
2023-08-24T09:19:00,axn,42.02
2023-08-24T09:20:00,axn,44.48
2023-08-24T09:21:00,axn,40.90
2023-08-24T09:22:00,axn,40.90
2023-08-24T09:23:00,axn,37.99
2023-08-24T09:24:00,axn,37.79
2023-08-24T09:25:00,axn,37.70
2023-08-24T09:26:00,axn,37.17
2023-08-24T09:27:00,axn,37.21
2023-08-24T09:28:00,axn,37.64
2023-08-24T09:29:00,axn,38.13
2023-08-24T09:30:00,axn,37.97
2023-08-24T09:31:00,axn,37.67
2023-08-24T09:32:00,axn,37.82
2023-08-24T09:33:00,axn,38.34
2023-08-24T09:34:00,axn,39.13
2023-08-24T09:35:00,axn,38.70
2023-08-24T09:36:00,axn,38.38
2023-08-24T09:37:00,axn,37.96
2023-08-24T09:38:00,axn,38.18
2023-08-24T09:39:00,axn,37.69
2023-08-24T09:40:00,axn,37.34
2023-08-24T09:41:00,axn,38.39
2023-08-24T09:42:00,axn,37.86
2023-08-24T09:43:00,axn,37.62
2023-08-24T09:44:00,axn,37.62
2023-08-24T09:45:00,axn,38.21
2023-08-24T09:46:00,axn,42.42
2023-08-24T09:47:00,axn,38.63
2023-08-24T09:48:00,axn,38.23
2023-08-24T09:49:00,axn,37.88
2023-08-24T09:50:00,axn,37.63
2023-08-24T09:51:00,axn,37.96
2023-08-24T09:52:00,axn,37.24
2023-08-24T09:53:00,axn,38.16
2023-08-24T09:54:00,axn,38.48
2023-08-24T09:55:00,axn,38.13
2023-08-24T09:56:00,axn,37.30
2023-08-24T09:57:00,axn,37.86
2023-08-24T09:58:00,axn,38.22
2023-08-24T09:59:00,axn,38.12
2023-08-24T10:00:00,axn,37.98
2023-08-24T10:01:00,axn,37.66
2023-08-24T10:02:00,axn,37.01
2023-08-24T10:03:00,axn,36.76
2023-08-24T10:04:00,axn,37.09
2023-08-24T10:05:00,axn,37.30
2023-08-24T10:06:00,axn,37.46
2023-08-24T10:07:00,axn,37.14
2023-08-24T10:08:00,axn,37.12
2023-08-24T10:09:00,axn,37.62
2023-08-24T10:10:00,axn,38.09
2023-08-24T10:11:00,axn,38.10
2023-08-24T10:12:00,axn,37.57
2023-08-24T10:13:00,axn,37.33
2023-08-24T10:14:00,axn,36.77
2023-08-24T10:15:00,axn,36.62
2023-08-24T10:16:00,axn,37.08
2023-08-24T10:17:00,axn,37.43
2023-08-24T10:18:00,axn,37.27
2023-08-24T10:19:00,axn,37.67
2023-08-24T10:20:00,axn,36.89
2023-08-24T10:21:00,axn,37.05
2023-08-24T10:22:00,axn,37.88
2023-08-24T10:23:00,axn,37.78
2023-08-24T10:24:00,axn,37.47
2023-08-24T10:25:00,axn,37.03
2023-08-24T10:26:00,axn,51.35
2023-08-24T10:27:00,axn,51.22
2023-08-24T10:28:00,axn,51.27
2023-08-24T10:29:00,axn,51.10
2023-08-24T10:30:00,axn,51.25
2023-08-24T10:31:00,axn,37.59
2023-08-24T10:32:00,axn,36.92
2023-08-24T10:33:00,axn,39.79
2023-08-24T10:34:00,axn,38.29
2023-08-24T10:35:00,axn,37.38
2023-08-24T10:36:00,axn,37.43
2023-08-24T10:37:00,axn,37.31
2023-08-24T10:38:00,axn,37.38
2023-08-24T10:39:00,axn,36.66
2023-08-24T10:40:00,axn,36.80
2023-08-24T10:41:00,axn,37.05
2023-08-24T10:42:00,axn,37.14
2023-08-24T10:43:00,axn,36.96
2023-08-24T10:44:00,axn,36.85
2023-08-24T10:45:00,axn,37.23
2023-08-24T10:46:00,axn,37.34
2023-08-24T10:47:00,axn,37.74
2023-08-24T10:48:00,axn,37.96
2023-08-24T10:49:00,axn,37.95
2023-08-24T10:50:00,axn,37.44
2023-08-24T10:51:00,axn,37.53
2023-08-24T10:52:00,axn,37.20
2023-08-24T10:53:00,axn,37.47
2023-08-24T10:54:00,axn,37.68
2023-08-24T10:55:00,axn,37.33
2023-08-24T10:56:00,axn,37.46
2023-08-24T10:57:00,axn,37.68
2023-08-24T10:58:00,axn,38.21
2023-08-24T10:59:00,axn,37.97
2023-08-24T11:00:00,axn,37.62
2023-08-24T11:01:00,axn,37.44
2023-08-24T11:02:00,axn,37.41
2023-08-24T11:03:00,axn,37.04
2023-08-24T11:04:00,axn,37.23
2023-08-24T11:05:00,axn,37.26
2023-08-24T11:06:00,axn,37.40
2023-08-24T11:07:00,axn,37.01
2023-08-24T11:08:00,axn,36.79
2023-08-24T11:09:00,axn,37.93
2023-08-24T11:10:00,axn,37.55
2023-08-24T11:11:00,axn,37.21
2023-08-24T11:12:00,axn,37.33
2023-08-24T11:13:00,axn,37.21
2023-08-24T11:14:00,axn,36.71
2023-08-24T11:15:00,axn,36.75
2023-08-24T11:16:00,axn,36.40
2023-08-24T11:17:00,axn,36.75
2023-08-24T11:18:00,axn,37.20
2023-08-24T11:19:00,axn,36.77
2023-08-24T11:20:00,axn,36.62
2023-08-24T11:21:00,axn,36.95
2023-08-24T11:22:00,axn,37.73
2023-08-24T11:23:00,axn,37.48
2023-08-24T11:24:00,axn,37.48
2023-08-24T11:25:00,axn,37.53
2023-08-24T11:26:00,axn,37.44
2023-08-24T11:27:00,axn,37.33
2023-08-24T11:28:00,axn,37.39
2023-08-24T11:29:00,axn,37.20
2023-08-24T11:30:00,axn,37.28
2023-08-24T11:31:00,axn,37.26
2023-08-24T11:32:00,axn,36.91
2023-08-24T11:33:00,axn,37.55
2023-08-24T11:34:00,axn,38.17
2023-08-24T11:35:00,axn,37.95
2023-08-24T11:36:00,axn,37.76
2023-08-24T11:37:00,axn,37.54
2023-08-24T11:38:00,axn,37.54
2023-08-24T11:39:00,axn,37.43
2023-08-24T11:40:00,axn,37.45
2023-08-24T11:41:00,axn,37.53
2023-08-24T11:42:00,axn,37.70
2023-08-24T11:43:00,axn,37.48
2023-08-24T11:44:00,axn,37.37
2023-08-24T11:45:00,axn,37.68
2023-08-24T11:46:00,axn,38.20
2023-08-24T11:47:00,axn,38.38
2023-08-24T11:48:00,axn,38.24
2023-08-24T11:49:00,axn,38.18
2023-08-24T11:50:00,axn,37.42
2023-08-24T11:51:00,axn,37.27
2023-08-24T11:52:00,axn,37.12
2023-08-24T11:53:00,axn,38.04
2023-08-24T11:54:00,axn,38.05
2023-08-24T11:55:00,axn,37.50
2023-08-24T11:56:00,axn,37.50
2023-08-24T11:57:00,axn,38.01
2023-08-24T11:58:00,axn,39.18
2023-08-24T11:59:00,axn,38.84
2023-08-24T12:00:00,axn,38.66
2023-08-24T12:01:00,axn,38.71
2023-08-24T12:02:00,axn,38.28
2023-08-24T12:03:00,axn,40.18
2023-08-24T12:04:00,axn,38.07
2023-08-24T12:05:00,axn,44.26
2023-08-24T12:06:00,axn,44.74
2023-08-24T12:07:00,axn,44.34
2023-08-24T12:08:00,axn,38.24
2023-08-24T12:09:00,axn,38.64
2023-08-24T12:10:00,axn,39.35
2023-08-24T12:11:00,axn,39.00
2023-08-24T12:12:00,axn,38.93
2023-08-24T12:13:00,axn,38.69
2023-08-24T12:14:00,axn,38.02
2023-08-24T12:15:00,axn,37.94
2023-08-24T12:16:00,axn,38.26
2023-08-24T12:17:00,axn,38.39
2023-08-24T12:18:00,axn,38.57
2023-08-24T12:19:00,axn,38.05
2023-08-24T12:20:00,axn,37.70
2023-08-24T12:21:00,axn,38.01
2023-08-24T12:22:00,axn,39.51
2023-08-24T12:23:00,axn,38.46
2023-08-24T12:24:00,axn,38.38
2023-08-24T12:25:00,axn,39.89
2023-08-24T12:26:00,axn,37.75
2023-08-24T12:27:00,axn,37.60
2023-08-24T12:28:00,axn,48.22
2023-08-24T12:29:00,axn,48.24
2023-08-24T12:30:00,axn,48.23
2023-08-24T12:31:00,axn,47.96
2023-08-24T12:32:00,axn,37.84
2023-08-24T12:33:00,axn,38.07
2023-08-24T12:34:00,axn,38.49
2023-08-24T12:35:00,axn,38.19
2023-08-24T12:36:00,axn,38.02
2023-08-24T12:37:00,axn,37.98
2023-08-24T12:38:00,axn,37.91
2023-08-24T12:39:00,axn,37.38
2023-08-24T12:40:00,axn,37.29
2023-08-24T12:41:00,axn,38.36
2023-08-24T12:42:00,axn,39.01
2023-08-24T12:43:00,axn,38.05
2023-08-24T12:44:00,axn,37.33
2023-08-24T12:45:00,axn,37.89
2023-08-24T12:46:00,axn,38.30
2023-08-24T12:47:00,axn,37.73
2023-08-24T12:48:00,axn,37.67
2023-08-24T12:49:00,axn,37.86
2023-08-24T12:50:00,axn,38.05
2023-08-24T12:51:00,axn,37.24
2023-08-24T12:52:00,axn,39.98
2023-08-24T12:53:00,axn,45.58
2023-08-24T12:54:00,axn,40.47
2023-08-24T12:55:00,axn,37.17
2023-08-24T12:56:00,axn,36.84
2023-08-24T12:57:00,axn,37.81
2023-08-24T12:58:00,axn,37.86
2023-08-24T12:59:00,axn,37.64
2023-08-24T13:00:00,axn,39.30
2023-08-24T13:01:00,axn,39.52
2023-08-24T13:02:00,axn,39.33
2023-08-24T13:03:00,axn,39.33
2023-08-24T13:04:00,axn,39.21
2023-08-24T13:05:00,axn,39.53
2023-08-24T13:06:00,axn,40.32
2023-08-24T13:07:00,axn,39.62
2023-08-24T13:08:00,axn,39.43
2023-08-24T13:09:00,axn,39.69
2023-08-24T13:10:00,axn,40.35
2023-08-24T13:11:00,axn,40.54
2023-08-24T13:12:00,axn,40.14
2023-08-24T13:13:00,axn,40.07
2023-08-24T13:14:00,axn,39.43
2023-08-24T13:15:00,axn,39.53
2023-08-24T13:16:00,axn,39.61
2023-08-24T13:17:00,axn,39.73
2023-08-24T13:18:00,axn,40.06